Weather History for Okeechobee, FL

Change the Weather History Date:

Wednesday, November 7, 2012

  Actual Average Record
Temperature  
Mean Temperature 59 °F -  
Max Temperature 68 °F 80 °F 90 °F (1989)
Min Temperature 50 °F 59 °F 44 °F (2010)
Degree Days  
Heating Degree Days 6    
Growing Degree Days 9 (Base 50)    
Moisture  
Dew Point 49 °F    
Average Humidity 74    
Maximum Humidity 100    
Minimum Humidity 46    
Precipitation  
Precipitation 0.00 in - - ()
Sea Level Pressure  
Sea Level Pressure 29.93 in    
Wind  
Wind Speed 8 mph (WNW)    
Max Wind Speed 21 mph    
Max Gust Speed 24 mph    
Visibility 10 miles    
Events      
Averages and records for this station are not official NWS values.
T = Trace of Precipitation, MM = Missing Value Source: NWS Daily Summary

Daily Weather History Graph

Daily Weather History Graph

Search for Another Location

Airport:

Trip Planner

Search our weather history database for the weather conditions in past years. The results will help you decide how hot, cold, wet, or windy it might be!

Date:

Astronomy

Nov. 07, 2012 Rise Set
Actual Time 6:38 AM EST 5:35 PM EST
Civil Twilight 6:13 AM EST 5:59 PM EST
Nautical Twilight 5:46 AM EST 6:27 PM EST
Astronomical Twilight 5:18 AM EST 6:55 PM EST
Moon 12:07 AM EST (11/7) 1:10 PM EST (11/7)
Length of Visible Light 11h 46m
Length of Day
10h 57m
Last Quarter, 43% of the Moon is Illuminated
Nov 7
Last Quarter
Nov 13
New
Nov 20
First Quarter
Nov 28
Full
Dec 6
Last Quarter

Hourly Weather History & Observations

Time (EST) Temp. Dew Point Humidity Pressure Visibility Wind Dir Wind Speed Gust Speed Precip Events Conditions
12:15 AM 60.8 °F 60.8 °F 100% 29.88 in 10.0 mi West 6.9 mph - N/A   Clear
12:35 AM 60.8 °F 59.0 °F 94% 29.88 in 10.0 mi West 5.8 mph - N/A   Clear
12:55 AM 60.8 °F 59.0 °F 94% 29.87 in 10.0 mi West 5.8 mph - N/A   Clear
1:15 AM 60.8 °F 57.2 °F 88% 29.87 in 10.0 mi WNW 5.8 mph - N/A   Clear
1:35 AM 59.0 °F 57.2 °F 94% 29.87 in 10.0 mi West 5.8 mph - N/A   Clear
1:55 AM 59.0 °F 55.4 °F 88% 29.87 in 10.0 mi WNW 5.8 mph - N/A   Clear
2:15 AM 59.0 °F 55.4 °F 88% 29.87 in 10.0 mi WNW 6.9 mph - N/A   Clear
2:35 AM 57.2 °F 55.4 °F 94% 29.87 in 10.0 mi WNW 5.8 mph - N/A   Clear
2:55 AM 57.2 °F 55.4 °F 94% 29.87 in 10.0 mi WNW 4.6 mph - N/A   Clear
3:15 AM 55.4 °F 53.6 °F 94% 29.87 in 10.0 mi West 3.5 mph - N/A   Clear
3:35 AM 55.4 °F 53.6 °F 94% 29.87 in 10.0 mi WNW 4.6 mph - N/A   Clear
3:55 AM 55.4 °F 53.6 °F 94% 29.87 in 10.0 mi WNW 5.8 mph - N/A   Clear
4:15 AM 55.4 °F 53.6 °F 94% 29.87 in 10.0 mi WNW 3.5 mph - N/A   Clear
4:35 AM 53.6 °F 53.6 °F 100% 29.88 in 10.0 mi West 3.5 mph - N/A   Clear
5:15 AM 53.6 °F 53.6 °F 100% 29.89 in 7.0 mi WNW 4.6 mph - N/A   Clear
5:35 AM 53.6 °F 53.6 °F 100% 29.89 in 7.0 mi WNW 4.6 mph - N/A   Clear
5:55 AM 53.6 °F 53.6 °F 100% 29.90 in 10.0 mi WNW 4.6 mph - N/A   Clear
6:15 AM 53.6 °F 53.6 °F 100% 29.91 in 10.0 mi WNW 6.9 mph - N/A   Clear
6:35 AM 53.6 °F 53.6 °F 100% 29.92 in 10.0 mi WNW 8.1 mph - N/A   Scattered Clouds
6:55 AM 53.6 °F 53.6 °F 100% 29.93 in 10.0 mi WNW 9.2 mph - N/A   Overcast
7:15 AM 55.4 °F 53.6 °F 94% 29.94 in 10.0 mi NW 6.9 mph - N/A   Overcast
7:35 AM 55.4 °F 51.8 °F 88% 29.94 in 10.0 mi NW 4.6 mph - N/A   Overcast
7:55 AM 55.4 °F 51.8 °F 88% 29.95 in 10.0 mi WNW 4.6 mph - N/A   Overcast
8:35 AM 57.2 °F 51.8 °F 82% 29.96 in 10.0 mi NW 8.1 mph - N/A   Clear
8:55 AM 59.0 °F 50.0 °F 72% 29.96 in 10.0 mi WNW 10.4 mph - N/A   Clear
9:15 AM 59.0 °F 50.0 °F 72% 29.96 in 10.0 mi NW 9.2 mph - N/A   Clear
9:35 AM 59.0 °F 48.2 °F 67% 29.97 in 10.0 mi NW 13.8 mph - N/A   Clear
10:15 AM 62.6 °F 50.0 °F 63% 29.97 in 10.0 mi NW 12.7 mph 16.1 mph N/A   Clear
10:35 AM 62.6 °F 48.2 °F 59% 29.97 in 10.0 mi WNW 12.7 mph - N/A   Clear
11:15 AM 64.4 °F 48.2 °F 56% 29.96 in 10.0 mi West 16.1 mph 23.0 mph N/A   Scattered Clouds
11:35 AM 64.4 °F 48.2 °F 56% 29.96 in 10.0 mi WNW 11.5 mph 19.6 mph N/A   Scattered Clouds
11:55 AM 64.4 °F 46.4 °F 52% 29.95 in 10.0 mi WNW 17.3 mph 21.9 mph N/A   Scattered Clouds
12:15 PM 64.4 °F 46.4 °F 52% 29.94 in 10.0 mi WNW 17.3 mph - N/A   Clear
12:35 PM 68.0 °F 48.2 °F 49% 29.93 in 10.0 mi WNW 20.7 mph 24.2 mph N/A   Clear
12:55 PM 66.2 °F 46.4 °F 49% 29.92 in 10.0 mi WNW 15.0 mph 24.2 mph N/A   Clear
1:15 PM 68.0 °F 48.2 °F 49% 29.91 in 10.0 mi NW 15.0 mph 19.6 mph N/A   Clear
1:35 PM 66.2 °F 46.4 °F 49% 29.90 in 10.0 mi WNW 16.1 mph 20.7 mph N/A   Clear
2:15 PM 64.4 °F 46.4 °F 52% 29.89 in 10.0 mi WNW 16.1 mph 20.7 mph N/A   Scattered Clouds
2:35 PM 68.0 °F 48.2 °F 49% 29.89 in 10.0 mi West 12.7 mph 19.6 mph N/A   Scattered Clouds
2:55 PM 64.4 °F 46.4 °F 52% 29.89 in 10.0 mi WNW 16.1 mph - N/A   Scattered Clouds
3:15 PM 66.2 °F 46.4 °F 49% 29.89 in 10.0 mi WNW 12.7 mph 20.7 mph N/A   Clear
3:35 PM 68.0 °F 46.4 °F 46% 29.89 in 10.0 mi WNW 12.7 mph 19.6 mph N/A   Scattered Clouds
3:55 PM 66.2 °F 46.4 °F 49% 29.89 in 10.0 mi West 11.5 mph - N/A   Scattered Clouds
4:15 PM 64.4 °F 46.4 °F 52% 29.89 in 10.0 mi WNW 11.5 mph 17.3 mph N/A   Scattered Clouds
4:35 PM 64.4 °F 44.6 °F 49% 29.89 in 10.0 mi WNW 10.4 mph 17.3 mph N/A   Scattered Clouds
4:55 PM 64.4 °F 46.4 °F 52% 29.89 in 10.0 mi WNW 9.2 mph 16.1 mph N/A   Scattered Clouds
5:15 PM 62.6 °F 44.6 °F 52% 29.90 in 10.0 mi NW 9.2 mph - N/A   Scattered Clouds
5:35 PM 60.8 °F 44.6 °F 55% 29.91 in 10.0 mi WNW 6.9 mph - N/A   Scattered Clouds
5:55 PM 59.0 °F 46.4 °F 63% 29.91 in 10.0 mi WNW 4.6 mph - N/A   Scattered Clouds
6:35 PM 55.4 °F 44.6 °F 67% 29.93 in 10.0 mi WNW 4.6 mph - N/A   Clear
6:55 PM 55.4 °F 44.6 °F 67% 29.94 in 10.0 mi WNW 4.6 mph - N/A   Clear
7:15 PM 55.4 °F 44.6 °F 67% 29.94 in 10.0 mi WNW 4.6 mph - N/A   Clear
7:35 PM 55.4 °F 44.6 °F 67% 29.95 in 10.0 mi NW 4.6 mph - N/A   Clear
7:55 PM 53.6 °F 44.6 °F 72% 29.96 in 10.0 mi WNW 4.6 mph - N/A   Clear
8:15 PM 53.6 °F 44.6 °F 72% 29.97 in 10.0 mi WNW 4.6 mph - N/A   Clear
8:35 PM 53.6 °F 44.6 °F 72% 29.98 in 10.0 mi WNW 5.8 mph - N/A   Clear
8:55 PM 51.8 °F 44.6 °F 76% 29.99 in 10.0 mi WNW 4.6 mph - N/A   Clear
9:15 PM 51.8 °F 44.6 °F 76% 30.00 in 10.0 mi NW 5.8 mph - N/A   Clear
9:35 PM 51.8 °F 44.6 °F 76% 30.01 in 10.0 mi NW 5.8 mph - N/A   Clear
9:55 PM 51.8 °F 44.6 °F 76% 30.01 in 10.0 mi NW 4.6 mph - N/A   Clear
10:15 PM 51.8 °F 44.6 °F 76% 30.02 in 10.0 mi NW 3.5 mph - N/A   Clear
10:35 PM 51.8 °F 44.6 °F 76% 30.02 in 10.0 mi NW 3.5 mph - N/A   Clear
11:15 PM 50.0 °F 44.6 °F 82% 30.01 in 10.0 mi NW 4.6 mph - N/A   Clear
11:35 PM 50.0 °F 44.6 °F 82% 30.01 in 10.0 mi NW 4.6 mph - N/A   Clear
11:55 PM 50.0 °F 44.6 °F 82% 30.01 in 10.0 mi Calm Calm - N/A   Clear